Regional Weather Roundup
Issued by NWS

Home | Current Version | Previous Version | Graphics & Text | Print | Product List | Glossary On
Versions: 1 2 3 4 5 6 7 8 9 10 11 12 13 14 15 16 17 18 19 20 21 22 23 24 25 26 27 28 29 30 31 32 33 34 35 36 37 38 39 40 41 42 43 44 45 46 47 48 49 50
000
ASUS43 KLOT 272008
RWRIL

ILLINOIS REGIONAL WEATHER ROUNDUP
NATIONAL WEATHER SERVICE CHICAGO/ROMEOVILLE IL
300 PM CDT MON APR 27 2015

NOTE: "FAIR" INDICATES FEW OR NO CLOUDS BELOW 12,000 FEET WITH NO
SIGNIFICANT WEATHER AND/OR OBSTRUCTIONS TO VISIBILITY.

* THESE STATIONS ARE NOT UNDER NWS QUALITY CONTROL. THEY ALSO MAY NOT
  REPORT WEATHER SUCH AS PRECIPITATION OR FOG.

ILZ001-002-007-009-015-016-024-272100-
NORTHWEST ILLINOIS

CITY           SKY/WX    TMP DP  RH WIND       PRES   REMARKS
MOLINE         SUNNY     65  33  30 N8        30.11F
STERLING*      SUNNY     64  37  36 N12G17    30.11F
SAVANNA*       SUNNY     65  32  28 N13G18    30.12F
$$

ILZ003-004-008-010-011-017-018-272100-
NORTH CENTRAL ILLINOIS

CITY           SKY/WX    TMP DP  RH WIND       PRES   REMARKS
ROCKFORD       MOSUNNY   64  33  31 N12       30.12F
FREEPORT*      SUNNY     61  32  33 N8G17     30.13F
ROCHELLE*      SUNNY     61  34  36 N7G21     30.11F
DE KALB*       SUNNY     60  34  37 N16       30.10F
PERU*          SUNNY     62  34  35 N15G24    30.11F
$$

ILZ005-006-012>014-019>023-272100-
NORTHEAST ILLINOIS

CITY           SKY/WX    TMP DP  RH WIND       PRES   REMARKS
CHICAGO-OHARE  MOSUNNY   53  34  48 NE13      30.12R
CHICAGO-MIDWAY MOSUNNY   55  35  47 NE15      30.13R
AURORA         MOSUNNY   61  35  37 N9G22     30.10F
LANSING*       SUNNY     50  33  51 NE16G23   30.13S
JOLIET*        MOSUNNY   61  38  42 N10       30.10F
WAUKEGAN       SUNNY     50  34  54 N15G23    30.12S
DUPAGE AIRPORT MOSUNNY   60  36  40 N8        30.09F
KANKAKEE*      SUNNY     56  37  48 N10G21    30.11F
WHEELING       SUNNY     52  34  50 N15G22    30.14R
MORRIS*        MOSUNNY   60  35  38 N5        30.08F
ROMEOVILLE*    PTSUNNY   58  34  40 N8        30.10S
NORTHERLY ISL    N/A     48  36  63 N10         N/A
$$

LMZ740>746-272100-
SOUTHERN LAKE MICHIGAN

STATION/POSITION SKY/WX   TEMP    WIND        PRES    VSBY  WAVE
                          AIR SEA DIR/SP/G                  HT/PER
                          (F)     (DEG/KT/KT) (MB)    (MI)  (FT/S)
HARRISON CRIB              41     350/  9/ 10   N/A
BURNHAM HARBOR             47      10/  7/ 13   N/A
CALUMET HARBOR             46     340/  8/ 13   N/A
BURNS HARBOR               43      10/ 13/ 16 1020.3F
MICHIGAN CITY              43     340/ 19/ 21   N/A
MICHIGAN CITY 6N           41 45   10/ 14/ 17   N/A           4/ 5
$$

ILZ025>027-034>036-040-047-049-050-058-095>099-272100-
WEST-CENTRAL ILLINOIS

CITY           SKY/WX    TMP DP  RH WIND       PRES   REMARKS
QUINCY         SUNNY     64  37  36 N10       30.09F
GALESBURG*     SUNNY     62  38  40 N17       30.11F
MACOMB*        SUNNY     63  37  36 NE13      30.13F
JACKSONVILLE*  SUNNY     65  37  34 N9G18     30.09S
PITTSFIELD*    SUNNY     65  34  31 N13G26    30.09F
$$

ILZ028>032-037-038-041>044-048-051>054-059>061-272100-
CENTRAL ILLINOIS

CITY           SKY/WX    TMP DP  RH WIND       PRES   REMARKS
PONTIAC        SUNNY     62  37  40 N15G21    30.10F
BLOOMINGTON    SUNNY     61  39  44 NE18      30.10F
DECATUR        MOSUNNY   62  41  46 N18G25    30.07F
PEORIA         SUNNY     65  37  35 N7G20     30.10F
LACON*         SUNNY     61  38  41 NE10G20   30.10F
LINCOLN*       SUNNY     63  38  39 N14G24    30.07F
SPRINGFIELD    SUNNY     65  39  38 NE14      30.08F
TAYLORVILLE    SUNNY     63  36  36 N18G25    30.08S
$$

ILZ033-039-045-046-055>057-062-063-272100-
EAST-CENTRAL ILLINOIS

CITY           SKY/WX    TMP DP  RH WIND       PRES   REMARKS
CHAMPAIGN      MOSUNNY   61  37  41 N20G26    30.07F
DANVILLE*      MOSUNNY   56  38  49 N24G32    30.05S
RANTOUL*       SUNNY     60  37  42 NE17G28   30.08F
MATTOON        SUNNY     60  37  42 N18G28    30.04F
PARIS*         MOSUNNY   59  39  47 N12G22    30.07F
$$

ILZ079-100>102-272100-
SOUTHWEST ILLINOIS

CITY           SKY/WX    TMP DP  RH WIND       PRES   REMARKS
ALTON          MOSUNNY   64  27  24 N12       30.06
BELLEVILLE     SUNNY     65  38  37 N14G20    30.04F
CAHOKIA*       SUNNY     66  37  34 NE16      30.05F
SPARTA*        SUNNY     62  40  44 N10       30.05F
$$

ILZ064>066-069>071-074>076-080>082-084>086-088>090-092>094-272100-
SOUTH-CENTRAL ILLINOIS

CITY           SKY/WX    TMP DP  RH WIND       PRES   REMARKS
CARBONDALE     SUNNY     65  38  36 N13G20    30.03F
CAIRO*         SUNNY     66  38  36 N10G20    30.01F
EFFINGHAM*     SUNNY     63  37  37 N13G24    30.06F
MARION         PTSUNNY   64  39  39 N13G21    30.03F
MT. VERNON     MOSUNNY   63  37  39 N9G20     30.05S
CENTRALIA*     SUNNY     65  37  35 N15G23    30.04F
SALEM*         SUNNY     65  37  35 NE8G22    30.05F
METROPOLIS*    SUNNY     65  38  37 N14       30.01F
$$

ILZ067-068-072-073-078-083-087-091-272100-
SOUTHEAST ILLINOIS

CITY           SKY/WX    TMP DP  RH WIND       PRES   REMARKS
LAWRENCEVILLE  SUNNY     63  39  41 N17G25    30.02F
FLORA*         SUNNY     62  40  44 N14G23    30.04F
FAIRFIELD*     SUNNY     63  40  42 N13G24    30.02S
HARRISBURG*    SUNNY     64  38  38 N13       30.04S
ROBINSON*      MOSUNNY   61  38  42 N18G25    30.04F
CARMI*         SUNNY     64  34  32 N14G20    30.02S
$$

ABBREVIATIONS USED IN REMARKS
   TC - TEMPERATURE IN CELSIUS
  WCI - WIND CHILL INDEX
   HX - HEAT INDEX
  VSB - VISIBILITY
$$




USA.gov is the U.S. government's official web portal to all federal, state and local government web resources and services.